[[{"header":{"parameterUnit":"m.s-1","parameterCategory":1,"la1":30.2991,"la2":30.254,"lo1":-89.0895,"lo2":-89.0444,"dy":0.0017,"dx":0.0017,"nx":28,"ny":28,"refTime":"2024-08-03T21:00:00:Z","depth":0,"parameterNumber":2,"parameterNumberName":"U-component_of_WINDS"},"data":[0,0,0,0,0,0,0,0,0,0,0,0,0,0,0,0,0,0,0,0,0,0,0,0,0,0,0,0,0,0,0,0,0,0,0,0,0,0,0,0,0,0,0,0,0,0,0,0,0,0,0,0,0,0,0,0,0,0,-2.3546,-2.3546,0,-2.3526,-2.3525,-2.3525,-2.3434,-2.3432,-2.343,-2.3428,-2.3407,-2.3409,-2.341,0,0,0,0,0,0,0,0,0,0,0,0,0,-2.3504,-2.3506,-2.3546,-2.3546,-2.3545,-2.3526,-2.3525,-2.3525,-2.3434,-2.3432,-2.3429,-2.3427,-2.3407,-2.3408,-2.341,0,0,0,0,0,0,0,0,0,0,0,0,0,-2.3507,-2.3506,-2.3546,-2.3498,-2.3493,-2.3526,-2.3525,-2.3525,-2.3435,-2.3432,-2.3428,-2.3425,-2.3406,-2.3408,-2.341,-2.3488,0,0,-2.3417,-2.3418,0,0,0,0,0,0,0,0,-2.3507,-2.3509,-2.3505,-2.3501,-2.3496,-2.3479,-2.3503,-2.3513,-2.3436,-2.3457,-2.3428,-2.3424,-2.3434,-2.3433,-2.3437,-2.3487,-2.3486,-2.3417,-2.3419,-2.3419,-2.342,0,0,0,0,0,0,0,-2.3507,-2.3509,-2.3538,-2.3505,-2.35,-2.3476,-2.3473,-2.3504,-2.3464,-2.3455,-2.3448,-2.3447,-2.3431,-2.3435,-2.3435,-2.3486,-2.3417,-2.3419,-2.342,-2.3421,-2.3596,-2.3599,0,0,0,0,0,0,-2.3514,-2.351,-2.3538,-2.3537,-2.3494,-2.348,-2.3476,-2.3488,-2.3463,-2.3456,-2.345,-2.3443,-2.3433,-2.3433,-2.3434,-2.3521,-2.3419,-2.3421,-2.3423,-2.3592,-2.3596,-2.36,0,0,0,0,0,0,-2.3513,-2.3517,-2.3539,-2.3522,-2.3523,-2.3484,-2.3497,-2.3489,-2.3493,-2.3459,-2.3451,-2.3462,-2.343,-2.3431,-2.3475,-2.352,-2.3422,-2.3424,-2.3588,-2.3594,-2.3598,-2.3698,0,0,0,0,0,0,-2.3513,-2.3518,-2.3547,-2.3523,-2.3524,-2.3581,-2.35,-2.3491,-2.3497,-2.3488,-2.3468,-2.3462,-2.3428,-2.3472,-2.3477,-2.3521,-2.3426,-2.3584,-2.3591,-2.3597,-2.369,-2.3706,-2.3719,0,0,0,0,0,-2.3511,-2.3577,-2.3549,-2.3553,-2.356,-2.3583,-2.3584,-2.3543,-2.3501,-2.353,-2.3508,-2.3462,-2.3514,-2.3477,-2.3482,-2.3527,-2.3581,-2.3589,-2.3596,-2.3684,-2.3703,-2.3718,0,0,0,0,0,0,-2.3608,-2.3573,-2.3542,-2.3602,-2.3596,-2.3568,-2.3603,-2.3565,-2.3571,-2.3562,-2.3512,-2.3508,-2.3558,-2.3547,-2.3506,-2.3599,-2.354,-2.3549,-2.3605,-2.3622,-2.3636,-2.3637,-2.3428,0,0,0,0,0,-2.3636,-2.3659,-2.3626,-2.3682,-2.3681,-2.3643,-2.3651,-2.362,-2.3613,-2.361,-2.3591,-2.3585,-2.36,-2.3611,-2.3622,-2.3688,-2.3682,-2.3722,-2.3736,-2.3748,-2.3756,-2.3787,-2.3804,-2.3625,-2.3625,-2.3624,0,0,-2.3695,-2.3678,-2.3696,-2.3701,-2.3693,-2.3716,-2.3642,-2.367,-2.3686,-2.3614,-2.3653,-2.3639,-2.3629,-2.3684,-2.3707,-2.3676,-2.3804,-2.3757,-2.3767,-2.3768,-2.3797,-2.3814,-2.3829,-2.363,-2.3629,-2.3628,0,0,-2.3813,-2.3804,-2.3848,-2.3841,-2.383,-2.3804,-2.3814,-2.3792,-2.3779,-2.3818,-2.3763,-2.3782,-2.3809,-2.3803,-2.3804,-2.3918,-2.3876,-2.3923,-2.3997,-2.4029,-2.4043,-2.4055,-2.4094,-2.4109,-2.3932,-2.3932,-2.3932,0,-2.3888,-2.3921,-2.3876,-2.3907,-2.391,-2.3845,-2.3888,-2.3884,-2.3878,-2.3881,-2.3846,-2.3877,-2.3866,-2.3917,-2.3945,-2.3948,-2.3957,-2.3925,-2.4044,-2.4056,-2.4067,-2.4103,-2.4118,-2.3938,-2.3937,-2.3936,-2.3936,0,-2.4012,-2.4035,-2.4072,-2.4066,-2.4073,-2.4111,-2.407,-2.4083,-2.4051,-2.4028,-2.4067,-2.4051,-2.4058,-2.4068,-2.4037,-2.4114,-2.4095,-2.4054,-2.3992,-2.4091,-2.4124,-2.4138,-2.3946,-2.3944,-2.3942,-2.3941,0,0,-2.4191,-2.4158,-2.4172,-2.4168,-2.4149,-2.4166,-2.42,-2.4206,-2.4217,-2.4214,-2.424,-2.4263,-2.4224,-2.4225,-2.4193,-2.4221,-2.4309,-2.4175,-2.4174,-2.4199,-2.4391,-2.4421,-2.4438,-2.4282,-2.4284,-2.4286,-2.4391,0,-2.4303,-2.4358,-2.4317,-2.4379,-2.4399,-2.4337,-2.4366,-2.4358,-2.4337,-2.435,-2.4328,-2.4344,-2.4292,-2.4292,-2.4317,-2.4294,-2.4347,-2.4286,-2.4304,-2.4305,-2.4307,-2.4456,-2.4488,-2.4588,-2.4404,-2.4406,-2.4408,0,-2.4441,-2.4442,-2.4506,-2.4481,-2.4488,-2.4515,-2.4515,-2.4529,-2.4518,-2.4501,-2.4501,-2.4461,-2.4491,-2.4432,-2.4472,-2.4431,-2.4436,-2.4425,-2.4428,-2.4427,-2.4362,-2.4457,-2.4619,-2.4633,-2.4428,-2.4426,-2.4425,0,-2.4563,-2.4581,-2.4621,-2.4619,-2.4592,-2.4612,-2.4601,-2.4587,-2.4592,-2.4592,-2.4595,-2.4599,-2.4602,-2.4606,-2.4567,-2.4528,-2.4612,-2.455,-2.4597,-2.4598,-2.4617,-2.4616,-2.478,-2.4623,-2.4623,-2.4623,-2.4622,0,-2.4691,-2.4732,-2.4675,-2.47,-2.4743,-2.4696,-2.474,-2.4723,-2.471,-2.4729,-2.4676,-2.4696,-2.4645,-2.4658,-2.4629,-2.4665,-2.4667,-2.4653,-2.4645,-2.4657,-2.4659,-2.4659,-2.4651,-2.4626,-2.4626,-2.4625,-2.4624,0,-2.4834,-2.4799,-2.4837,-2.4807,-2.4801,-2.4834,-2.4808,-2.4829,-2.4804,-2.4829,-2.4832,-2.4794,-2.4807,-2.4769,-2.4777,-2.4757,-2.4809,-2.479,-2.4813,-2.4807,-2.4856,-2.4851,-2.5024,-2.5044,-2.4876,-2.4878,-2.488,0,-2.4918,-2.4948,-2.492,-2.4929,-2.4921,-2.4936,-2.494,-2.4895,-2.4901,-2.4889,-2.4911,-2.492,-2.4924,-2.4948,-2.492,-2.4925,-2.4905,-2.4965,-2.4905,-2.4916,-2.4904,-2.4902,-2.4903,-2.4977,-2.498,-2.4981,-2.4983,0,-2.5069,-2.5049,-2.5057,-2.5059,-2.5065,-2.5064,-2.506,-2.507,-2.5021,-2.5031,-2.5043,-2.5046,-2.5053,-2.5062,-2.5061,-2.5049,-2.5007,-2.5002,-2.5013,-2.5025,-2.5036,-2.5029,-2.4845,-2.4998,-2.4996,-2.4995,-2.4994,-2.4994,-2.5184,-2.5206,-2.519,-2.52,-2.5191,-2.5188,-2.5205,-2.5182,-2.5191,-2.5192,-2.5165,-2.5182,-2.5168,-2.5162,-2.5155,-2.5167,-2.5139,-2.5156,-2.516,-2.5164,-2.5171,-2.5035,-2.5167,-2.5167,-2.5166,-2.5166,-2.5165,0,-2.533,-2.5316,-2.5326,-2.532,-2.5328,-2.5287,-2.528,-2.5289,-2.5305,-2.5295,-2.53,-2.5313,-2.532,-2.5293,-2.5296,-2.5312,-2.5292,-2.5314,-2.5312,-2.5309,-2.5197,-2.5186,-2.5329,-2.5329,-2.5329,-2.5329,-2.5329,-2.5329,-2.5407,-2.5442,-2.542,-2.545,-2.5435,-2.5451,-2.545,-2.5446,-2.5437,-2.5454,-2.546,-2.5442,-2.5424,-2.5426,-2.543,-2.5422,-2.5425,-2.5453,-2.5438,-2.5333,-2.5317,-2.5302,-2.5292,-2.5454,-2.5455,-2.5548,-2.5549,-2.555]},{"header":{"parameterUnit":"m.s-1","parameterCategory":1,"la1":30.2991,"la2":30.254,"lo1":-89.0895,"lo2":-89.0444,"dy":0.0017,"dx":0.0017,"nx":28,"ny":28,"refTime":"2024-08-03T21:00:00:Z","depth":0,"parameterNumber":3,"parameterNumberName":"V-component_of_WINDS"},"data":[0,0,0,0,0,0,0,0,0,0,0,0,0,0,0,0,0,0,0,0,0,0,0,0,0,0,0,0,0,0,0,0,0,0,0,0,0,0,0,0,0,0,0,0,0,0,0,0,0,0,0,0,0,0,0,0,0,0,-3.0284,-3.0286,0,-3.0465,-3.0467,-3.0469,-3.0501,-3.0499,-3.0498,-3.0496,-3.0679,-3.0685,-3.0691,0,0,0,0,0,0,0,0,0,0,0,0,0,-2.9962,-2.9968,-3.0284,-3.0286,-3.0288,-3.0464,-3.0467,-3.0469,-3.0501,-3.0499,-3.0497,-3.0495,-3.0677,-3.0684,-3.0692,0,0,0,0,0,0,0,0,0,0,0,0,0,-3.0118,-2.997,-3.0283,-3.0325,-3.0331,-3.0464,-3.0467,-3.047,-3.0501,-3.0499,-3.0497,-3.0495,-3.0674,-3.0683,-3.0693,-3.0796,0,0,-3.0721,-3.0725,0,0,0,0,0,0,0,0,-3.011,-3.013,-3.0317,-3.0323,-3.0329,-3.0458,-3.0421,-3.0579,-3.0502,-3.0436,-3.0496,-3.0493,-3.0607,-3.0622,-3.0661,-3.0804,-3.0812,-3.0722,-3.0728,-3.0732,-3.0735,0,0,0,0,0,0,0,-3.0099,-3.0123,-3.0355,-3.0319,-3.0327,-3.0334,-3.0354,-3.0451,-3.0532,-3.0442,-3.0445,-3.0466,-3.061,-3.0651,-3.0665,-3.0815,-3.0722,-3.073,-3.0736,-3.074,-3.1052,-3.1054,0,0,0,0,0,0,-3.0081,-3.0113,-3.035,-3.0361,-3.0212,-3.0342,-3.0364,-3.0419,-3.0531,-3.0546,-3.0468,-3.0467,-3.0636,-3.0654,-3.0672,-3.0799,-3.0732,-3.0741,-3.0746,-3.1049,-3.1052,-3.1055,0,0,0,0,0,0,-3.0074,-3.0102,-3.0342,-3.0238,-3.0269,-3.035,-3.0411,-3.0423,-3.0465,-3.0551,-3.0565,-3.0495,-3.0635,-3.0658,-3.0765,-3.0806,-3.0745,-3.0753,-3.1046,-3.105,-3.1054,-3.1056,0,0,0,0,0,0,-3.0064,-3.0099,-3.014,-3.0239,-3.0275,-3.0433,-3.0414,-3.0429,-3.0482,-3.0482,-3.058,-3.0594,-3.0635,-3.0751,-3.0774,-3.0818,-3.0761,-3.1042,-3.1048,-3.1052,-3.1052,-3.1059,-3.1065,0,0,0,0,0,-3.0053,-3.0133,-3.0142,-3.017,-3.0327,-3.0436,-3.0456,-3.0502,-3.0485,-3.0526,-3.0581,-3.0591,-3.0798,-3.0761,-3.0788,-3.0835,-3.104,-3.1046,-3.1052,-3.1049,-3.1058,-3.1065,0,0,0,0,0,0,-3.0036,-3.0146,-3.0158,-3.0272,-3.0344,-3.0441,-3.0494,-3.051,-3.0588,-3.0585,-3.0638,-3.066,-3.0763,-3.081,-3.0767,-3.094,-3.0918,-3.0929,-3.0906,-3.0915,-3.0921,-3.0908,-3.0769,0,0,0,0,0,-3.0045,-3.0125,-3.0217,-3.0309,-3.0345,-3.0413,-3.0462,-3.0491,-3.0568,-3.0598,-3.0661,-3.0734,-3.0815,-3.0868,-3.0948,-3.1059,-3.108,-3.1105,-3.1111,-3.1116,-3.1125,-3.1187,-3.1198,-3.1075,-3.1075,-3.1074,0,0,-3.0066,-3.0136,-3.0183,-3.0307,-3.0367,-3.0447,-3.0439,-3.0524,-3.0584,-3.0611,-3.0716,-3.0764,-3.0849,-3.0958,-3.1009,-3.1,-3.1164,-3.1124,-3.1127,-3.1134,-3.1194,-3.1206,-3.1216,-3.1079,-3.1078,-3.1077,0,0,-3.0144,-3.0206,-3.0289,-3.0349,-3.0439,-3.0484,-3.0504,-3.0598,-3.0632,-3.0737,-3.0759,-3.0831,-3.097,-3.1029,-3.1078,-3.1178,-3.119,-3.1202,-3.1236,-3.1295,-3.1305,-3.1314,-3.1348,-3.136,-3.1211,-3.1211,-3.1211,0,-3.0158,-3.0281,-3.0329,-3.0414,-3.0467,-3.0497,-3.058,-3.0636,-3.0747,-3.0783,-3.0771,-3.0946,-3.1006,-3.1129,-3.1153,-3.1192,-3.1215,-3.1191,-3.13,-3.1309,-3.1318,-3.1352,-3.1365,-3.1212,-3.1212,-3.1212,-3.1212,0,-3.0293,-3.0377,-3.0433,-3.0541,-3.0601,-3.0684,-3.0744,-3.0799,-3.0823,-3.0869,-3.0975,-3.1048,-3.1142,-3.1173,-3.1198,-3.13,-3.1291,-3.1289,-3.1267,-3.133,-3.1362,-3.1376,-3.1213,-3.1213,-3.1213,-3.1212,0,0,-3.0365,-3.0498,-3.0518,-3.0567,-3.0668,-3.0734,-3.0819,-3.0912,-3.0957,-3.1033,-3.1104,-3.1221,-3.1219,-3.1274,-3.1305,-3.1357,-3.1431,-3.1349,-3.1352,-3.1361,-3.1547,-3.1548,-3.1562,-3.144,-3.1443,-3.1445,-3.154,0,-3.0455,-3.0607,-3.0653,-3.0781,-3.0859,-3.0888,-3.0961,-3.1031,-3.1076,-3.1148,-3.1197,-3.1279,-3.1271,-3.1304,-3.1357,-3.1411,-3.1469,-3.1405,-3.1506,-3.1509,-3.1483,-3.1579,-3.1581,-3.1667,-3.1553,-3.1555,-3.1557,0,-3.058,-3.0658,-3.0794,-3.0885,-3.0919,-3.0985,-3.1073,-3.1142,-3.1221,-3.125,-3.1311,-3.1338,-3.1426,-3.1399,-3.1521,-3.1476,-3.152,-3.1552,-3.1557,-3.1568,-3.1536,-3.1592,-3.1695,-3.1708,-3.1577,-3.1576,-3.1574,0,-3.0618,-3.0757,-3.0856,-3.0897,-3.1006,-3.1051,-3.1099,-3.1176,-3.1228,-3.1306,-3.134,-3.1426,-3.1473,-3.1539,-3.1587,-3.1563,-3.1704,-3.1682,-3.173,-3.1728,-3.1758,-3.1755,-3.1869,-3.1787,-3.1787,-3.1786,-3.1786,0,-3.0713,-3.0794,-3.0875,-3.0936,-3.1027,-3.1079,-3.1168,-3.1217,-3.1285,-3.1355,-3.1385,-3.145,-3.151,-3.1583,-3.1621,-3.1715,-3.1736,-3.1761,-3.1771,-3.1759,-3.1755,-3.1788,-3.1783,-3.179,-3.1789,-3.1789,-3.1788,0,-3.077,-3.0828,-3.0938,-3.1032,-3.1057,-3.1121,-3.1201,-3.1261,-3.1307,-3.1395,-3.1418,-3.149,-3.1577,-3.1632,-3.1742,-3.1768,-3.1871,-3.1879,-3.1845,-3.1849,-3.1893,-3.1888,-3.2031,-3.2053,-3.1957,-3.1958,-3.1959,0,-3.0827,-3.089,-3.0992,-3.1041,-3.1089,-3.1168,-3.1222,-3.1275,-3.133,-3.1425,-3.1473,-3.1562,-3.1636,-3.1773,-3.1834,-3.1918,-3.1928,-3.1972,-3.1941,-3.1926,-3.1928,-3.1923,-3.1929,-3.1977,-3.1978,-3.1979,-3.1979,0,-3.0921,-3.0946,-3.1023,-3.1111,-3.1174,-3.1246,-3.1317,-3.1355,-3.142,-3.148,-3.157,-3.1627,-3.174,-3.1827,-3.1917,-3.1965,-3.1983,-3.1989,-3.2004,-3.1992,-3.1969,-3.1981,-3.1858,-3.1985,-3.1984,-3.1984,-3.1984,-3.1983,-3.0979,-3.1037,-3.1117,-3.1202,-3.1261,-3.1326,-3.1387,-3.144,-3.1516,-3.1613,-3.1639,-3.1733,-3.1809,-3.1932,-3.1981,-3.2055,-3.2049,-3.2071,-3.2077,-3.2081,-3.2081,-3.1958,-3.2071,-3.2071,-3.2071,-3.2071,-3.2071,0,-3.1073,-3.1127,-3.1204,-3.1303,-3.1369,-3.1381,-3.146,-3.1515,-3.1597,-3.1668,-3.174,-3.1842,-3.1927,-3.1995,-3.2083,-3.2128,-3.2138,-3.2149,-3.2146,-3.2156,-3.2082,-3.206,-3.2139,-3.2139,-3.2139,-3.2139,-3.2139,-3.2139,-3.113,-3.1228,-3.1263,-3.1389,-3.1442,-3.1534,-3.1578,-3.1638,-3.1695,-3.1808,-3.1879,-3.1924,-3.1993,-3.2086,-3.2164,-3.2182,-3.2212,-3.2221,-3.224,-3.2169,-3.2162,-3.2154,-3.2134,-3.2227,-3.2227,-3.2308,-3.2309,-3.2309]}]]